EW0139 Weather Reports


Display with metric or nautical units.
time (UTC)temp
F
wind
direction
speed
MPH
gust
MPH
rain 1hr
in
rain 24hr
in
rain mn
in
humidity
%
barometer
mb
20260905150757 65 300 15.0 21.0 0.00 0.00 0.00 59 1014.2
20260905145307 64 253 14.0 19.0 0.00 0.00 0.00 60 1014.1
20260905143752 63 281 16.0 18.0 0.00 0.00 0.00 61 1013.8
20260905142243 62 281 18.0 18.0 0.00 0.00 0.00 62 1013.7
20260905140751 61 281 12.0 18.0 0.00 0.00 0.00 63 1013.2
20260905135257 59 271 9.0 14.0 0.00 0.00 0.00 65 1013.2
20260905133746 56 257 8.0 10.0 0.00 0.00 0.00 66 1012.8
20260905132251 55 259 5.0 10.0 0.00 0.00 0.00 67 1012.4
20260905130756 54 261 6.0 12.0 0.00 0.00 0.00 67 1012.0
20260905125249 54 252 10.0 11.0 0.00 0.00 0.00 67 1011.7
20260905123757 54 284 10.0 10.0 0.00 0.00 0.00 67 1011.2
20260905122308 55 286 0.0 6.0 0.00 0.00 0.00 65 1011.4
20260905120753 55 284 1.0 7.0 0.00 0.00 0.00 64 1011.2
20260905115257 55 257 10.0 10.0 0.00 0.00 0.00 64 1012.2
20260905113747 56 275 2.0 5.0 0.00 0.00 0.00 62 1012.4
20260905112254 57 265 1.0 5.0 0.00 0.00 0.00 61 1012.5
20260905110801 57 273 7.0 10.0 0.00 0.00 0.00 60 1012.4
20260905105250 58 273 9.0 13.0 0.00 0.00 0.00 59 1012.2
20260905103752 59 275 13.0 13.0 0.00 0.00 0.00 56 1011.8
20260905102306 61 292 9.0 14.0 0.00 0.00 0.00 56 1011.5
20260905100747 63 282 10.0 17.0 0.00 0.00 0.00 52 1011.3
20260905095253 64 292 15.0 19.0 0.00 0.00 0.00 50 1011.2
20260905093741 64 286 11.0 18.0 0.00 0.00 0.00 49 1011.3
20260905092246 63 289 11.0 14.0 0.00 0.00 0.00 50 1011.2
20260905090753 63 298 8.0 14.0 0.00 0.00 0.00 50 1011.2
20260905085241 63 288 14.0 19.0 0.00 0.00 0.00 49 1011.5
20260905083806 64 284 13.0 16.0 0.00 0.00 0.00 47 1011.1
20260905082256 64 288 11.0 17.0 0.00 0.00 0.00 47 1011.0
20260905080740 66 285 15.0 18.0 0.00 0.00 0.00 45 1010.7
20260905075245 67 292 12.0 18.0 0.00 0.00 0.00 44 1010.7
20260905073756 67 305 11.0 18.0 0.00 0.00 0.00 43 1010.5
20260905072243 68 292 11.0 17.0 0.00 0.00 0.00 43 1010.3
20260905070745 69 300 10.0 20.0 0.00 0.00 0.00 42 1010.0
20260905065254 69 295 10.0 18.0 0.00 0.00 0.00 42 1009.8
20260905063758 68 292 12.0 16.0 0.00 0.00 0.00 41 1008.7
20260905062248 68 290 10.0 20.0 0.00 0.00 0.00 40 1008.3
20260905060753 68 281 11.0 14.0 0.00 0.00 0.00 41 1008.2
20260905055240 67 279 10.0 11.0 0.00 0.00 0.00 40 1008.2
20260905053748 68 315 1.0 7.0 0.00 0.00 0.00 39 1008.2
20260905052252 69 278 3.0 11.0 0.00 0.00 0.00 38 1008.2
20260905050740 69 286 6.0 6.0 0.00 0.00 0.00 38 1008.0
20260905045243 71 282 6.0 13.0 0.00 0.00 0.00 37 1008.3
20260905043808 71 283 9.0 13.0 0.00 0.00 0.00 37 1007.8
20260905042258 71 304 9.0 14.0 0.00 0.00 0.00 37 1008.1
20260905040743 72 294 12.0 15.0 0.00 0.00 0.00 37 1008.1
20260905035313 72 288 9.0 12.0 0.00 0.00 0.00 37 1008.4
20260905033743 74 298 11.0 15.0 0.00 0.00 0.00 36 1008.1
20260905032253 74 305 5.0 8.0 0.00 0.00 0.00 35 1008.1
20260905030740 75 298 10.0 10.0 0.00 0.00 0.00 35 1007.9
20260905025244 77 296 6.0 11.0 0.00 0.00 0.00 34 1007.8
20260905023750 79 292 10.0 14.0 0.00 0.00 0.00 33 1007.6
20260905022320 81 288 14.0 16.0 0.00 0.00 0.00 32 1007.4
20260905020742 82 294 10.0 20.0 0.00 0.00 0.00 31 1007.0
20260905015247 84 285 12.0 20.0 0.00 0.00 0.00 30 1006.6
20260905013754 83 284 12.0 12.0 0.00 0.00 0.00 32 1006.6
20260905012258 86 122 0.0 1.0 0.00 0.00 0.00 28 1006.2
20260905010803 90 122 0.0 0.0 0.00 0.00 0.00 27 1006.2
20260905005255 92 122 0.0 1.0 0.00 0.00 0.00 25 1005.8
20260905003742 92 122 0.0 3.0 0.00 0.00 0.00 26 1005.7
20260905002254 93 122 2.0 4.0 0.00 0.00 0.00 24 1005.5